Weather History for Luxor, Egypt

Change the Weather History Date:

Saturday, December 28, 2013

  Actual Average Record
Temperature  
Mean Temperature 65 °F -  
Max Temperature 80 °F 70 °F 84 °F (1996)
Min Temperature 50 °F 44 °F 37 °F (2000)
Growing Degree Days 15 (Base 50)    
Moisture  
Dew Point 46 °F    
Average Humidity 55    
Maximum Humidity 87    
Minimum Humidity 22    
Precipitation  
Precipitation 0.00 in 0.00 in - ()
Sea Level Pressure  
Sea Level Pressure 30.00 in    
Wind  
Wind Speed 1 mph ()    
Max Wind Speed 5 mph    
Max Gust Speed -    
Visibility 4.5 miles    
Events      
Averages and records for this station are not official NWS values.
T = Trace of Precipitation, MM = Missing Value Source: Averaged Metar Reports

Daily Weather History Graph

Daily Weather History Graph

Search for Another Location

Airport:

Trip Planner

Search our weather history database for the weather conditions in past years. The results will help you decide how hot, cold, wet, or windy it might be!

Date:

Astronomy

Dec. 28, 2013 Rise Set
Actual Time 6:34 AM EET 5:07 PM EET
Civil Twilight 6:09 AM EET 5:32 PM EET
Nautical Twilight 5:40 AM EET 6:01 PM EET
Astronomical Twilight 5:12 AM EET 6:29 PM EET
Moon 2:03 AM EET (12/28) 1:31 PM EET (12/28)
Length of Visible Light 11h 23m
Length of Day
10h 33m
Waning Crescent, 22% of the Moon is Illuminated
Dec 28
Waning Crescent
Jan 1
New
Jan 8
First Quarter
Jan 16
Full
Jan 24
Last Quarter

Hourly Weather History & Observations

Time (EET) Temp. Dew Point Humidity Pressure Visibility Wind Dir Wind Speed Gust Speed Precip Events Conditions
12:00 AM 59.0 °F 50.0 °F 72% 30.01 in - North 2.3 mph - N/A   Clear
1:00 AM 57.2 °F 48.2 °F 72% 30.01 in - Calm Calm - N/A   Clear
2:00 AM 56 °F 46 °F 61% 30.01 in 6 mi Calm Calm - -  
2:00 AM 55.4 °F 46.4 °F 72% 30.01 in - Calm Calm - N/A   Clear
3:00 AM 55.4 °F 44.6 °F 67% 30.01 in - Calm Calm - N/A   Clear
4:00 AM 55.4 °F 44.6 °F 67% 30.01 in - Calm Calm - N/A   Clear
5:00 AM 53 °F 39 °F 47% 30.01 in 6 mi Calm Calm - -  
5:00 AM 55.4 °F 44.6 °F 67% 30.01 in - Calm Calm - N/A   Clear
6:00 AM 50.0 °F 44.6 °F 82% 30.01 in - SW 4.6 mph - N/A   Clear
7:00 AM 51.8 °F 44.6 °F 76% 30.04 in 3.7 mi Calm Calm - N/A   Unknown
8:00 AM 54 °F 46 °F 68% 30.03 in 4 mi Calm Calm - -   Mist
8:00 AM 50.0 °F 46.4 °F 87% 30.04 in 3.7 mi Calm Calm - N/A   Unknown
9:00 AM 60.8 °F 46.4 °F 59% 30.04 in 3.7 mi Calm Calm - N/A   Unknown
10:00 AM 66.2 °F 48.2 °F 52% 30.06 in 3.7 mi Calm Calm - N/A   Unknown
11:00 AM 69.8 °F 50.0 °F 49% 30.04 in 3.7 mi Calm Calm - N/A   Unknown
12:00 PM 75.2 °F 50.0 °F 41% 30.01 in 3.7 mi Calm Calm - N/A   Unknown
1:00 PM 77.0 °F 46.4 °F 34% 29.98 in 5.0 mi ENE 2.3 mph - N/A   Unknown
2:00 PM 80 °F 48 °F 22% 29.95 in 5 mi Calm Calm - -   Haze
2:00 PM 80.6 °F 48.2 °F 32% 29.95 in 5.0 mi Calm Calm - N/A   Unknown
3:00 PM 80.6 °F 46.4 °F 30% 29.95 in 5.0 mi Calm Calm - N/A   Unknown
4:00 PM 78.8 °F 46.4 °F 32% 29.95 in 5.0 mi Calm Calm - N/A   Unknown
5:00 PM 75.2 °F 46.4 °F 36% 29.95 in 5.0 mi Calm Calm - N/A   Unknown
6:00 PM 69.8 °F 50.0 °F 49% 29.95 in - Calm Calm - N/A   Clear
7:00 PM 66.2 °F 50.0 °F 56% 29.95 in - Calm Calm - N/A   Clear
8:00 PM 64.4 °F 48.2 °F 56% 29.98 in - Calm Calm - N/A   Clear
9:00 PM 62.6 °F 44.6 °F 52% 29.98 in - SE 2.3 mph - N/A   Clear
10:00 PM 60.8 °F 41.0 °F 48% 29.98 in - SSE 2.3 mph - N/A   Clear
11:00 PM 59.0 °F 39.2 °F 48% 29.98 in - SSE 2.3 mph - N/A   Clear